DW4535 Weather Reports


time (UTC)temp
C
wind
direction
speed
KPH
gust
KPH
rain 1hr
cm
rain 24hr
cm
rain mn
cm
humidity
%
barometer
mb
20260506233005 -17 285 3.2 8.0 0.00 0.00 0.00 1022.4
20260506231603 -17 284 3.2 9.7 0.00 0.00 0.00 1022.5
20260506230056 -17 279 3.2 6.4 0.00 0.00 0.00 1022.5
20260506224552 -17 278 1.6 8.0 0.00 0.00 0.00 1022.6
20260506223047 -17 277 1.6 6.4 0.00 0.00 0.00 1022.7
20260506221543 -17 285 1.6 8.0 0.00 0.00 0.00 1022.8
20260506220041 -17 283 1.6 6.4 0.00 0.00 0.00 1022.8
20260506214538 -17 272 1.6 8.0 0.00 0.00 0.00 1022.7
20260506213031 -17 273 3.2 9.7 0.00 0.00 0.00 1022.6
20260506211526 -17 274 1.6 6.4 0.00 0.00 0.00 1022.6
20260506210022 -17 273 1.6 11.3 0.00 0.00 0.00 1022.6
20260506204517 -17 271 1.6 8.0 0.00 0.00 0.00 1022.5
20260506203020 -17 277 1.6 6.4 0.00 0.00 0.00 1022.5
20260506201509 -17 278 3.2 8.0 0.00 0.00 0.00 1022.4
20260506200004 -17 278 3.2 6.4 0.00 0.00 0.00 1022.1
20260506194607 -17 278 1.6 8.0 0.00 0.00 0.00 1022.0
20260506193058 -17 279 3.2 9.7 0.00 0.00 0.00 1022.1
20260506191601 -17 279 3.2 9.7 0.00 0.00 0.00 1022.1
20260506190045 -17 283 3.2 8.0 0.00 0.00 0.00 1022.0
20260506184540 -17 287 3.2 8.0 0.00 0.00 0.00 1021.9
20260506183035 -17 290 3.2 8.0 0.00 0.00 0.00 1021.8
20260506181531 -17 288 3.2 8.0 0.00 0.00 0.00 1021.8
20260506180027 -17 280 4.8 9.7 0.00 0.00 0.00 1021.7
20260506174522 -17 271 3.2 8.0 0.00 0.00 0.00 1021.6
20260506173017 -17 273 1.6 6.4 0.00 0.00 0.00 1021.6
20260506171517 -17 274 1.6 9.7 0.00 0.00 0.00 1021.5
20260506170009 -17 275 1.6 8.0 0.00 0.00 0.00 1021.5
20260506164504 -17 276 3.2 9.7 0.00 0.00 0.00 1021.4
20260506163105 -17 0.0 0.0 0.00 0.00 0.00 1021.3
20260506161558 -17 0.0 0.0 0.00 0.00 0.00 1021.1
20260506160050 -17 0.0 0.0 0.00 0.00 0.00 1020.9
20260506154548 -17 0.0 0.0 0.00 0.00 0.00 1020.6
20260506153041 -17 0.0 0.0 0.00 0.00 0.00 1020.8
20260506151537 -17 0.0 0.0 0.00 0.00 0.00 1020.9
20260506150032 -17 0.0 0.0 0.00 0.00 0.00 1020.7
20260506144528 -17 0.0 0.0 0.00 0.00 0.00 1020.0
20260506143027 -17 0.0 0.0 0.00 0.00 0.00 1020.3
20260506141523 -17 0.0 0.0 0.00 0.00 0.00 1019.8
20260506140016 -17 0.0 0.0 0.00 0.00 0.00 1019.9
20260506134510 -17 0.0 0.0 0.00 0.00 0.00 1020.0
20260506133006 -17 0.0 0.0 0.00 0.00 0.00 1020.2
20260506131506 -17 0.0 0.0 0.00 0.00 0.00 1019.9
20260506130057 -17 0.0 0.0 0.00 0.00 0.00 1020.1
20260506124553 -17 0.0 0.0 0.00 0.00 0.00 1019.7
20260506123049 -17 0.0 0.0 0.00 0.00 0.00 1019.7
20260506121544 -17 0.0 0.0 0.00 0.00 0.00 1019.7
20260506120040 -17 0.0 0.0 0.00 0.00 0.00 1019.5
20260506114535 -17 0.0 0.0 0.00 0.00 0.00 1019.4
20260506113031 -17 0.0 0.0 0.00 0.00 0.00 1019.4
20260506111527 -17 0.0 0.0 0.00 0.00 0.00 1019.3
20260506110023 -17 0.0 0.0 0.00 0.00 0.00 1019.1
20260506104518 -17 0.0 0.0 0.00 0.00 0.00 1019.1
20260506103014 -17 0.0 0.0 0.00 0.00 0.00 1019.0
20260506101510 -17 0.0 0.0 0.00 0.00 0.00 1018.9
20260506100006 -17 266 1.6 8.0 0.00 0.00 0.00 1018.9
20260506094501 -17 266 1.6 8.0 0.00 0.00 0.00 1018.8
20260506093058 -17 266 0.0 3.2 0.00 0.00 0.00 1018.7
20260506091553 -17 266 0.0 4.8 0.00 0.00 0.00 1018.7
20260506090049 -17 266 1.6 4.8 0.00 0.00 0.00 1018.6
20260506084548 -17 266 0.0 1.6 0.00 0.00 0.00 1018.5
20260506083041 -17 266 0.0 4.8 0.00 0.00 0.00 1018.5
20260506081535 -17 266 0.0 6.4 0.00 0.00 0.00 1018.4
20260506073022 -17 266 0.0 0.0 0.00 0.00 0.00 1018.0
20260506071517 -17 266 0.0 0.0 0.00 0.00 0.00 1017.9
20260506061611 -17 266 0.0 0.0 0.00 0.00 0.00 1017.6
20260506044540 -17 266 0.0 3.2 0.00 0.00 0.00 1017.5
20260506043028 -17 266 1.6 4.8 0.00 0.00 0.00 1017.4
20260506041537 -17 266 3.2 6.4 0.00 0.00 0.00 1017.4
20260506040019 -17 266 0.0 4.8 0.00 0.00 0.00 1017.0
20260506034514 -17 266 1.6 4.8 0.00 0.00 0.00 1016.9
20260506033010 -17 266 1.6 6.4 0.00 0.00 0.00 1016.7
20260506031507 -17 266 1.6 4.8 0.00 0.00 0.00 1016.7
20260506030104 -17 266 1.6 6.4 0.00 0.00 0.00 1016.6
20260506024614 -17 266 0.0 4.8 0.00 0.00 0.00 1016.5
20260506023057 -17 266 0.0 6.4 0.00 0.00 0.00 1016.4
20260506021555 -17 266 1.6 6.4 0.00 0.00 0.00 1016.3
20260506020042 -17 266 1.6 6.4 0.00 0.00 0.00 1016.5
20260506014537 -17 266 1.6 4.8 0.00 0.00 0.00 1016.3
20260506013037 -17 266 1.6 6.4 0.00 0.00 0.00 1016.4
20260506011548 -17 266 3.2 6.4 0.00 0.00 0.00 1016.4
20260506010026 -17 266 1.6 6.4 0.00 0.00 0.00 1016.3
20260506004533 -17 266 3.2 6.4 0.00 0.00 0.00 1016.3
20260506003015 -17 266 3.2 6.4 0.00 0.00 0.00 1016.4
20260506001510 -17 266 0.0 4.8 0.00 0.00 0.00 1016.5
20260506000005 -17 266 1.6 6.4 0.00 0.00 0.00 1016.6
20260505234502 -17 266 1.6 4.8 0.00 0.00 0.00 1016.7